Time,TemperatureF,DewpointF,PressureIn,WindDirection,WindDirectionDegrees,WindSpeedMPH,WindSpeedGustMPH,Humidity,HourlyPrecipIn,Conditions,Clouds,dailyrainin,SolarRadiationWatts/m^2,SoftwareType,DateUTC
2013-06-03 00:01:00,73.0,71.0,-100.00,SSW,192,7.0,12.0,94,0.00,,,0.33,71.000000,,2013-06-03 00:01:00,
2013-06-03 00:12:00,73.0,71.0,-100.00,SSW,192,7.0,12.0,94,0.00,,,0.33,71.000000,,2013-06-03 00:12:00,
2013-06-03 01:32:00,72.0,72.0,-100.00,SSW,208,5.0,10.0,100,-99.99,,,0.33,2.000000,,2013-06-03 01:32:00,
2013-06-03 01:42:00,72.0,72.0,-100.00,SSW,208,5.0,10.0,100,-99.99,,,0.33,2.000000,,2013-06-03 01:42:00,
2013-06-03 01:52:00,72.0,72.0,-100.00,SSW,208,5.0,10.0,100,-99.99,,,0.33,2.000000,,2013-06-03 01:52:00,
2013-06-03 02:02:00,72.0,72.0,-100.00,SSW,208,5.0,10.0,100,-99.99,,,0.33,2.000000,,2013-06-03 02:02:00,
2013-06-03 02:12:00,72.0,72.0,-100.00,SSW,208,5.0,10.0,100,-99.99,,,0.33,2.000000,,2013-06-03 02:12:00,
2013-06-03 02:32:00,71.0,71.0,-100.00,South,186,4.0,7.0,100,0.00,,,0.33,0.000000,,2013-06-03 02:32:00,
2013-06-03 02:42:00,71.0,71.0,-100.00,South,186,4.0,7.0,100,0.00,,,0.33,0.000000,,2013-06-03 02:42:00,
2013-06-03 02:52:00,71.0,71.0,-100.00,South,186,4.0,7.0,100,0.00,,,0.33,0.000000,,2013-06-03 02:52:00,
2013-06-03 03:02:00,71.0,71.0,-100.00,South,186,4.0,7.0,100,0.00,,,0.33,0.000000,,2013-06-03 03:02:00,
2013-06-03 03:12:00,71.0,71.0,-100.00,South,186,4.0,7.0,100,0.00,,,0.33,0.000000,,2013-06-03 03:12:00,
2013-06-03 03:13:00,71.0,71.0,-100.00,SSW,203,6.0,12.0,100,0.00,,,0.33,0.000000,,2013-06-03 03:13:00,
2013-06-03 03:33:00,71.0,71.0,-100.00,SSW,203,6.0,12.0,100,0.00,,,0.33,0.000000,,2013-06-03 03:33:00,
2013-06-03 03:43:00,71.0,71.0,-100.00,SSW,203,6.0,12.0,100,0.00,,,0.33,0.000000,,2013-06-03 03:43:00,
2013-06-03 03:53:00,71.0,71.0,-100.00,SSW,203,6.0,12.0,100,0.00,,,0.33,0.000000,,2013-06-03 03:53:00,
2013-06-03 04:03:00,71.0,71.0,-100.00,SSW,203,6.0,12.0,100,0.00,,,0.33,0.000000,,2013-06-03 04:03:00,
2013-06-03 04:33:00,69.0,69.0,-100.00,South,186,4.0,9.0,100,0.01,,,0.34,0.000000,,2013-06-03 04:33:00,
2013-06-03 04:42:00,69.0,69.0,-100.00,South,186,4.0,9.0,100,0.01,,,0.34,0.000000,,2013-06-03 04:42:00,
2013-06-03 04:53:00,69.0,69.0,-100.00,South,186,4.0,9.0,100,0.01,,,0.34,0.000000,,2013-06-03 04:53:00,
2013-06-03 05:02:00,69.0,69.0,-100.00,South,186,4.0,9.0,100,0.01,,,0.34,0.000000,,2013-06-03 05:02:00,
2013-06-03 05:12:00,69.0,69.0,-100.00,South,186,4.0,9.0,100,0.01,,,0.34,0.000000,,2013-06-03 05:12:00,
2013-06-03 05:32:00,67.0,67.0,-100.00,WSW,258,2.0,5.0,100,0.06,,,0.40,0.000000,,2013-06-03 05:32:00,
2013-06-03 05:43:00,67.0,67.0,-100.00,WSW,258,2.0,5.0,100,0.06,,,0.40,0.000000,,2013-06-03 05:43:00,
2013-06-03 05:52:00,67.0,67.0,-100.00,WSW,258,2.0,5.0,100,0.06,,,0.40,0.000000,,2013-06-03 05:52:00,
2013-06-03 06:02:00,67.0,67.0,-100.00,WSW,258,2.0,5.0,100,0.06,,,0.40,0.000000,,2013-06-03 06:02:00,
2013-06-03 06:12:00,67.0,67.0,-100.00,WSW,258,2.0,5.0,100,0.06,,,0.40,0.000000,,2013-06-03 06:12:00,
2013-06-03 06:32:00,66.0,66.0,-100.00,ESE,107,1.0,6.0,100,0.12,,,0.52,0.000000,,2013-06-03 06:32:00,
2013-06-03 06:42:00,66.0,66.0,-100.00,ESE,107,1.0,6.0,100,0.12,,,0.52,0.000000,,2013-06-03 06:42:00,
2013-06-03 06:53:00,66.0,66.0,-100.00,ESE,107,1.0,6.0,100,0.12,,,0.52,0.000000,,2013-06-03 06:53:00,
2013-06-03 07:02:00,66.0,66.0,-100.00,ESE,107,1.0,6.0,100,0.12,,,0.52,0.000000,,2013-06-03 07:02:00,
2013-06-03 07:12:00,66.0,66.0,-100.00,ESE,107,1.0,6.0,100,0.12,,,0.52,0.000000,,2013-06-03 07:12:00,
2013-06-03 07:32:00,66.0,66.0,-100.00,SSW,197,3.0,5.0,100,0.00,,,-99.99,0.000000,,2013-06-03 07:32:00,
2013-06-03 07:42:00,66.0,66.0,-100.00,SSW,197,3.0,5.0,100,0.00,,,-99.99,0.000000,,2013-06-03 07:42:00,
2013-06-03 07:52:00,66.0,66.0,-100.00,SSW,197,3.0,5.0,100,0.00,,,-99.99,0.000000,,2013-06-03 07:52:00,
2013-06-03 08:02:00,66.0,66.0,-100.00,SSW,197,3.0,5.0,100,0.00,,,-99.99,0.000000,,2013-06-03 08:02:00,
2013-06-03 08:12:00,66.0,66.0,-100.00,SSW,197,3.0,5.0,100,0.00,,,-99.99,0.000000,,2013-06-03 08:12:00,
2013-06-03 08:32:00,66.0,66.0,-100.00,SW,232,3.0,6.0,100,0.02,,,0.54,0.000000,,2013-06-03 08:32:00,
2013-06-03 08:42:00,66.0,66.0,-100.00,SW,232,3.0,6.0,100,0.02,,,0.54,0.000000,,2013-06-03 08:42:00,
2013-06-03 08:52:00,66.0,66.0,-100.00,SW,232,3.0,6.0,100,0.02,,,0.54,0.000000,,2013-06-03 08:52:00,
2013-06-03 09:02:00,66.0,66.0,-100.00,SW,232,3.0,6.0,100,0.02,,,0.54,0.000000,,2013-06-03 09:02:00,
2013-06-03 09:12:00,66.0,66.0,-100.00,SW,232,3.0,6.0,100,0.02,,,0.54,0.000000,,2013-06-03 09:12:00,
2013-06-03 09:13:00,66.0,66.0,-100.00,SW,217,3.0,6.0,100,0.00,,,0.54,0.000000,,2013-06-03 09:13:00,
2013-06-03 09:33:00,66.0,66.0,-100.00,SW,217,3.0,6.0,100,0.00,,,0.54,0.000000,,2013-06-03 09:33:00,
2013-06-03 09:43:00,66.0,66.0,-100.00,SW,217,3.0,6.0,100,0.00,,,0.54,0.000000,,2013-06-03 09:43:00,
2013-06-03 09:53:00,66.0,66.0,-100.00,SW,217,3.0,6.0,100,0.00,,,0.54,0.000000,,2013-06-03 09:53:00,
2013-06-03 10:03:00,66.0,66.0,-100.00,SW,217,3.0,6.0,100,0.00,,,0.54,0.000000,,2013-06-03 10:03:00,
2013-06-03 10:33:00,66.0,66.0,-100.00,South,187,3.0,5.0,100,0.00,,,0.54,4.000000,,2013-06-03 10:33:00,
2013-06-03 10:42:00,66.0,66.0,-100.00,South,187,3.0,5.0,100,0.00,,,0.54,4.000000,,2013-06-03 10:42:00,
2013-06-03 10:53:00,66.0,66.0,-100.00,South,187,3.0,5.0,100,0.00,,,0.54,4.000000,,2013-06-03 10:53:00,
2013-06-03 11:02:00,66.0,66.0,-100.00,South,187,3.0,5.0,100,0.00,,,0.54,4.000000,,2013-06-03 11:02:00,
2013-06-03 11:12:00,66.0,66.0,-100.00,South,187,3.0,5.0,100,0.00,,,0.54,4.000000,,2013-06-03 11:12:00,
2013-06-03 11:32:00,67.0,67.0,-100.00,SSW,192,2.0,4.0,100,0.00,,,0.54,72.000000,,2013-06-03 11:32:00,
2013-06-03 11:42:00,67.0,67.0,-100.00,SSW,192,2.0,4.0,100,0.00,,,0.54,72.000000,,2013-06-03 11:42:00,
2013-06-03 11:52:00,67.0,67.0,-100.00,SSW,192,2.0,4.0,100,0.00,,,0.54,72.000000,,2013-06-03 11:52:00,
2013-06-03 12:02:00,67.0,67.0,-100.00,SSW,192,2.0,4.0,100,0.00,,,0.54,72.000000,,2013-06-03 12:02:00,
2013-06-03 12:12:00,67.0,67.0,-100.00,SSW,192,2.0,4.0,100,0.00,,,0.54,72.000000,,2013-06-03 12:12:00,
2013-06-03 12:32:00,70.0,68.0,-100.00,South,190,4.0,5.0,93,0.00,,,0.54,244.000000,,2013-06-03 12:32:00,
2013-06-03 12:42:00,70.0,68.0,-100.00,South,190,4.0,5.0,93,0.00,,,0.54,244.000000,,2013-06-03 12:42:00,
2013-06-03 12:52:00,70.0,68.0,-100.00,South,190,4.0,5.0,93,0.00,,,0.54,244.000000,,2013-06-03 12:52:00,
2013-06-03 13:02:00,70.0,68.0,-100.00,South,190,4.0,5.0,93,0.00,,,0.54,244.000000,,2013-06-03 13:02:00,
2013-06-03 13:12:00,70.0,68.0,-100.00,South,190,4.0,5.0,93,0.00,,,0.54,244.000000,,2013-06-03 13:12:00,
2013-06-03 13:13:00,75.0,68.0,-100.00,NNW,331,3.0,7.0,79,0.00,,,0.54,473.000000,,2013-06-03 13:13:00,
2013-06-03 13:33:00,75.0,68.0,-100.00,NNW,331,3.0,7.0,79,0.00,,,0.54,473.000000,,2013-06-03 13:33:00,
2013-06-03 13:43:00,75.0,68.0,-100.00,NNW,331,3.0,7.0,79,0.00,,,0.54,473.000000,,2013-06-03 13:43:00,
2013-06-03 13:53:00,75.0,68.0,-100.00,NNW,331,3.0,7.0,79,0.00,,,0.54,473.000000,,2013-06-03 13:53:00,
2013-06-03 14:02:00,75.0,68.0,-100.00,NNW,331,3.0,7.0,79,0.00,,,0.54,473.000000,,2013-06-03 14:02:00,
2013-06-03 14:33:00,75.0,65.0,-100.00,NNW,338,7.0,13.0,72,0.00,,,0.54,577.000000,,2013-06-03 14:33:00,
2013-06-03 14:42:00,75.0,65.0,-100.00,NNW,338,7.0,13.0,72,0.00,,,0.54,577.000000,,2013-06-03 14:42:00,
2013-06-03 14:52:00,75.0,65.0,-100.00,NNW,338,7.0,13.0,72,0.00,,,0.54,577.000000,,2013-06-03 14:52:00,
2013-06-03 15:02:00,75.0,65.0,-100.00,NNW,338,7.0,13.0,72,0.00,,,0.54,577.000000,,2013-06-03 15:02:00,
2013-06-03 15:12:00,75.0,65.0,-100.00,NNW,338,7.0,13.0,72,0.00,,,0.54,577.000000,,2013-06-03 15:12:00,
2013-06-03 15:13:00,79.0,67.0,-100.00,North,2,5.0,9.0,66,0.00,,,0.54,591.000000,,2013-06-03 15:13:00,
2013-06-03 15:33:00,79.0,67.0,-100.00,North,2,5.0,9.0,66,0.00,,,0.54,591.000000,,2013-06-03 15:33:00,
2013-06-03 15:43:00,79.0,67.0,-100.00,North,2,5.0,9.0,66,0.00,,,0.54,591.000000,,2013-06-03 15:43:00,
2013-06-03 15:53:00,79.0,67.0,-100.00,North,2,5.0,9.0,66,0.00,,,0.54,591.000000,,2013-06-03 15:53:00,
2013-06-03 16:03:00,79.0,67.0,-100.00,North,2,5.0,9.0,66,0.00,,,0.54,591.000000,,2013-06-03 16:03:00,
2013-06-03 16:33:00,79.0,66.0,-100.00,NNW,344,5.0,9.0,64,0.00,,,0.54,484.000000,,2013-06-03 16:33:00,
2013-06-03 16:42:00,79.0,66.0,-100.00,NNW,344,5.0,9.0,64,0.00,,,0.54,484.000000,,2013-06-03 16:42:00,
2013-06-03 16:53:00,79.0,66.0,-100.00,NNW,344,5.0,9.0,64,0.00,,,0.54,484.000000,,2013-06-03 16:53:00,
2013-06-03 17:02:00,79.0,66.0,-100.00,NNW,344,5.0,9.0,64,0.00,,,0.54,484.000000,,2013-06-03 17:02:00,
2013-06-03 17:12:00,79.0,66.0,-100.00,NNW,344,5.0,9.0,64,0.00,,,0.54,484.000000,,2013-06-03 17:12:00,
2013-06-03 17:33:00,77.0,63.0,-100.00,NW,312,8.0,14.0,63,0.00,,,0.54,440.000000,,2013-06-03 17:33:00,
2013-06-03 17:42:00,77.0,63.0,-100.00,NW,312,8.0,14.0,63,0.00,,,0.54,440.000000,,2013-06-03 17:42:00,
2013-06-03 17:52:00,77.0,63.0,-100.00,NW,312,8.0,14.0,63,0.00,,,0.54,440.000000,,2013-06-03 17:52:00,
2013-06-03 18:03:00,77.0,63.0,-100.00,NW,312,8.0,14.0,63,0.00,,,0.54,440.000000,,2013-06-03 18:03:00,
2013-06-03 18:12:00,77.0,63.0,-100.00,NW,312,8.0,14.0,63,0.00,,,0.54,440.000000,,2013-06-03 18:12:00,
2013-06-03 18:32:00,76.0,64.0,-100.00,WNW,301,9.0,16.0,66,0.00,,,0.54,372.000000,,2013-06-03 18:32:00,
2013-06-03 18:43:00,76.0,64.0,-100.00,WNW,301,9.0,16.0,66,0.00,,,0.54,372.000000,,2013-06-03 18:43:00,
2013-06-03 18:53:00,76.0,64.0,-100.00,WNW,301,9.0,16.0,66,0.00,,,0.54,372.000000,,2013-06-03 18:53:00,
2013-06-03 19:03:00,76.0,64.0,-100.00,WNW,301,9.0,16.0,66,0.00,,,0.54,372.000000,,2013-06-03 19:03:00,
2013-06-03 19:12:00,76.0,64.0,-100.00,WNW,301,9.0,16.0,66,0.00,,,0.54,372.000000,,2013-06-03 19:12:00,
2013-06-03 19:33:00,74.0,62.0,-100.00,NNW,343,7.0,14.0,67,0.00,,,0.21,308.000000,,2013-06-03 19:33:00,
2013-06-03 19:42:00,74.0,62.0,-100.00,NNW,343,7.0,14.0,67,0.00,,,0.21,308.000000,,2013-06-03 19:42:00,
2013-06-03 19:53:00,74.0,62.0,-100.00,NNW,343,7.0,14.0,67,0.00,,,0.21,308.000000,,2013-06-03 19:53:00,
2013-06-03 20:02:00,74.0,62.0,-100.00,NNW,343,7.0,14.0,67,0.00,,,0.21,308.000000,,2013-06-03 20:02:00,
2013-06-03 20:12:00,74.0,62.0,-100.00,NNW,343,7.0,14.0,67,0.00,,,0.21,308.000000,,2013-06-03 20:12:00,
2013-06-03 20:33:00,77.0,63.0,-100.00,NNE,27,7.0,15.0,63,0.00,,,0.21,487.000000,,2013-06-03 20:33:00,
2013-06-03 20:43:00,77.0,63.0,-100.00,NNE,27,7.0,15.0,63,0.00,,,0.21,487.000000,,2013-06-03 20:43:00,
2013-06-03 20:52:00,77.0,63.0,-100.00,NNE,27,7.0,15.0,63,0.00,,,0.21,487.000000,,2013-06-03 20:52:00,
2013-06-03 21:02:00,77.0,63.0,-100.00,NNE,27,7.0,15.0,63,0.00,,,0.21,487.000000,,2013-06-03 21:02:00,
2013-06-03 21:12:00,77.0,63.0,-100.00,NNE,27,7.0,15.0,63,0.00,,,0.21,487.000000,,2013-06-03 21:12:00,
2013-06-03 21:33:00,77.0,62.0,-100.00,NNW,336,7.0,15.0,59,0.00,,,0.21,484.000000,,2013-06-03 21:33:00,
2013-06-03 21:43:00,77.0,62.0,-100.00,NNW,336,7.0,15.0,59,0.00,,,0.21,484.000000,,2013-06-03 21:43:00,
2013-06-03 21:53:00,77.0,62.0,-100.00,NNW,336,7.0,15.0,59,0.00,,,0.21,484.000000,,2013-06-03 21:53:00,
2013-06-03 22:03:00,77.0,62.0,-100.00,NNW,336,7.0,15.0,59,0.00,,,0.21,484.000000,,2013-06-03 22:03:00,
2013-06-03 22:12:00,77.0,62.0,-100.00,NNW,336,7.0,15.0,59,0.00,,,0.21,484.000000,,2013-06-03 22:12:00,
2013-06-03 22:33:00,75.0,61.0,-100.00,NNW,336,6.0,10.0,61,0.00,,,0.21,266.000000,,2013-06-03 22:33:00,
2013-06-03 22:42:00,75.0,61.0,-100.00,NNW,336,6.0,10.0,61,0.00,,,0.21,266.000000,,2013-06-03 22:42:00,
2013-06-03 22:53:00,75.0,61.0,-100.00,NNW,336,6.0,10.0,61,0.00,,,0.21,266.000000,,2013-06-03 22:53:00,
2013-06-03 23:02:00,75.0,61.0,-100.00,NNW,336,6.0,10.0,61,0.00,,,0.21,266.000000,,2013-06-03 23:02:00,
2013-06-03 23:12:00,75.0,61.0,-100.00,NNW,336,6.0,10.0,61,0.00,,,0.21,266.000000,,2013-06-03 23:12:00,
2013-06-03 23:32:00,76.0,58.0,-100.00,NNW,333,8.0,13.0,54,0.00,,,0.21,192.000000,,2013-06-03 23:32:00,
2013-06-03 23:42:00,76.0,58.0,-100.00,NNW,333,8.0,13.0,54,0.00,,,0.21,192.000000,,2013-06-03 23:42:00,
2013-06-03 23:52:00,76.0,58.0,-100.00,NNW,333,8.0,13.0,54,0.00,,,0.21,192.000000,,2013-06-03 23:52:00,